Location: Poughquag
(41.6090°N, 73.6820°W)
Time: 07:57:25
(UTC-05:00)

STRAND 1 - Pass Details

Date: 30 November 2023
Orbit: 766 x 778 km, 98.4° (Epoch: 24 February)

Event Time Altitude Azimuth Distance (km) Brightness Sun altitude
Exits shadow 17:39:05 18° 57° (ENE) 1,802 ? -13.4°
Maximum altitude 17:41:21 25° 94° (E) 1,525 ? -13.8°
Drops below altitude 10° 17:45:28 10° 149° (SSE) 2,299 ? -14.6°
Sets 17:48:09 0° 162° (SSE) 3,222 ? -15.1°
